{"data":{"norad_id":48226,"epoch":"2026-05-25T03:36:16.867008Z","epoch_age_seconds":72814,"freshness":"FRESH","line1":"1 48226U 21031S   26145.15019522 -.00000062  00000+0 -20285-3 0  9991","line2":"2 48226  87.8948 294.2892 0001753 106.7976 253.3347 13.14504143245246","mean_motion":13.14504143,"eccentricity":0.0001753,"inclination_deg":87.8948,"raan_deg":294.2892,"arg_perigee_deg":106.7976,"mean_anomaly_deg":253.3347,"bstar":-0.00020285,"rev_number":24524,"period_min":109.54701114244,"perigee_km":1204.4557275287,"apogee_km":1207.1146506482,"semimajor_km":7583.9221890884,"source":"CELESTRAK","updated_at":"2026-05-25T13:38:22.436632Z"}}